Weather History for El Centro, CA

Change the Weather History Date:

Wednesday, November 21, 2012

  Actual Average Record
Temperature  
Mean Temperature 64 °F -  
Max Temperature 81 °F 73 °F 86 °F (2002)
Min Temperature 48 °F 49 °F 46 °F (1998)
Growing Degree Days 14 (Base 50)    
Moisture  
Dew Point 37 °F    
Average Humidity 42    
Maximum Humidity 63    
Minimum Humidity 20    
Precipitation  
Precipitation 0.00 in - - ()
Sea Level Pressure  
Sea Level Pressure 30.02 in    
Wind  
Wind Speed 4 mph (WSW)    
Max Wind Speed 7 mph    
Max Gust Speed -    
Visibility 10 miles    
Events      
Averages and records for this station are not official NWS values.
T = Trace of Precipitation, MM = Missing Value Source: NWS Daily Summary

Daily Weather History Graph

Daily Weather History Graph

Search for Another Location

Airport:

Trip Planner

Search our weather history database for the weather conditions in past years. The results will help you decide how hot, cold, wet, or windy it might be!

Date:

Astronomy

Nov. 21, 2012 Rise Set
Actual Time 6:18 AM PST 4:38 PM PST
Civil Twilight 5:52 AM PST 5:04 PM PST
Nautical Twilight 5:22 AM PST 5:34 PM PST
Astronomical Twilight 4:52 AM PST 6:04 PM PST
Moon 12:39 PM PST 12:01 AM PST
Length of Visible Light 11h 12m
Length of Day
10h 19m
Waxing Gibbous, 63% of the Moon is Illuminated
Nov 21
Waxing Gibbous
Nov 28
Full
Dec 6
Last Quarter
Dec 13
New
Dec 19
First Quarter

Hourly Weather History & Observations

Time (PST) Temp. Dew Point Humidity Pressure Visibility Wind Dir Wind Speed Gust Speed Precip Events Conditions
12:56 AM 50.0 °F 36.0 °F 59% 30.03 in 10.0 mi WSW 6.9 mph - N/A   Clear
1:56 AM 51.1 °F 36.0 °F 56% 30.03 in 10.0 mi WSW 6.9 mph - N/A   Clear
2:56 AM 51.1 °F 36.0 °F 56% 30.03 in 10.0 mi WSW 5.8 mph - N/A   Clear
3:56 AM 48.0 °F 36.0 °F 63% 30.02 in 10.0 mi WSW 4.6 mph - N/A   Clear
4:56 AM 51.1 °F 35.1 °F 54% 30.03 in 10.0 mi Calm Calm - N/A   Clear
5:56 AM 48.9 °F 36.0 °F 61% 30.04 in 10.0 mi WSW 4.6 mph - N/A   Clear
6:56 AM 53.1 °F 37.0 °F 55% 30.07 in 10.0 mi WSW 6.9 mph - N/A   Clear
7:56 AM 57.9 °F 37.9 °F 47% 30.09 in 10.0 mi West 5.8 mph - N/A   Clear
8:56 AM 64.9 °F 41.0 °F 42% 30.09 in 10.0 mi WSW 4.6 mph - N/A   Clear
9:56 AM 70.0 °F 41.0 °F 35% 30.09 in 10.0 mi SSW 3.5 mph - N/A   Clear
10:56 AM 73.9 °F 39.0 °F 28% 30.06 in 10.0 mi Variable 3.5 mph - N/A   Clear
11:56 AM 77.0 °F 36.0 °F 23% 30.02 in 10.0 mi Calm Calm - N/A   Clear
12:56 PM 80.1 °F 35.1 °F 20% 30.00 in 10.0 mi Calm Calm - N/A   Clear
1:56 PM 81.0 °F 36.0 °F 20% 29.99 in 10.0 mi Calm Calm - N/A   Clear
2:56 PM 80.1 °F 37.0 °F 21% 29.99 in 10.0 mi Calm Calm - N/A   Clear
3:56 PM 79.0 °F 37.0 °F 22% 29.98 in 10.0 mi Calm Calm - N/A   Clear
4:56 PM 72.0 °F 39.9 °F 31% 29.98 in 10.0 mi Calm Calm - N/A   Clear
5:56 PM 63.0 °F 39.9 °F 43% 29.99 in 10.0 mi Calm Calm - N/A   Clear
6:56 PM 64.0 °F 41.0 °F 43% 30.00 in 10.0 mi Calm Calm - N/A   Clear
7:56 PM 60.1 °F 41.0 °F 49% 30.01 in 10.0 mi WSW 5.8 mph - N/A   Clear
8:56 PM 59.0 °F 39.0 °F 48% 30.01 in 10.0 mi Calm Calm - N/A   Clear
9:56 PM 55.9 °F 36.0 °F 47% 30.01 in 10.0 mi SSW 3.5 mph - N/A   Clear
10:56 PM 57.0 °F 33.1 °F 40% 30.01 in 10.0 mi SW 3.5 mph - N/A   Clear
11:56 PM 51.1 °F 33.1 °F 50% 30.02 in 10.0 mi WNW 4.6 mph - N/A   Clear